Regional Weather Roundup
Issued by NWS

Home | Current Version | Previous Version | Graphics & Text | Print | Product List | Glossary Off
Versions: 1 2 3 4 5 6 7 8 9 10 11 12 13 14 15 16 17 18 19 20 21 22 23 24 25 26 27 28 29 30 31 32 33 34 35 36 37 38 39 40 41 42 43 44 45 46 47 48 49 50

000
ASUS43 KOAX 301002
RWRNE

WEATHER ROUNDUP FOR NEBRASKA
NATIONAL WEATHER SERVICE OMAHA NE
400 AM CST FRI JAN 30 2015

NOTES: SATELLITE DATA IS BEING USED TO AUGMENT CLOUD COVER ABOVE
       12000 FEET.
       "FAIR" INDICATES FEW OR NO CLOUDS BELOW 12,000 FEET WITH NO
       SIGNIFICANT WEATHER AND/OR OBSTRUCTIONS TO VISIBILITY.

  * THESE STATIONS DO NOT REPORT WEATHER SUCH AS RAIN...SNOW OR FOG.

NEZ001>004-019>022-054>056-301100-
NEBRASKA PANHANDLE

CITY           SKY/WX    TMP DP  RH WIND       PRES   REMARKS
SCOTTSBLUFF    MOCLDY    28  21  75 E9        30.27F WCI  19
ALLIANCE       MOCLDY    25  20  81 SE6       30.28F WCI  18
CHADRON        MOCLDY    36  17  46 SW13      30.25F WCI  27
SIDNEY         CLOUDY    29  19  66 S7        30.29F WCI  22
$$

NEZ057>060-069>072-079>082-301100-
SOUTHWEST NEBRASKA

CITY           SKY/WX    TMP DP  RH WIND       PRES   REMARKS
NORTH PLATTE   MOCLDY    19  15  84 E3        30.41F
IMPERIAL       CLOUDY    28  21  75 SE7       30.38F WCI  21
MCCOOK         MOCLDY    20  15  81 CALM      30.43F
$$

NEZ005>010-023>029-035>040-094-301100-
NORTH CENTRAL NEBRASKA

CITY           SKY/WX    TMP DP  RH WIND       PRES   REMARKS
VALENTINE      CLEAR     19  15  84 E5        30.35F WCI  12
BROKEN BOW     CLEAR     20  15  81 CALM      30.41F
ORD            CLEAR     21  17  84 S5        30.45F WCI  15
$$

NEZ041-046>049-061>064-073>077-083>087-301100-
SOUTH CENTRAL NEBRASKA

CITY           SKY/WX    TMP DP  RH WIND       PRES   REMARKS
GRAND ISLAND     N/A     19  17  92 SE3       30.49F
HASTINGS       PTCLDY    23  19  85 SE7       30.47F WCI  15
KEARNEY *      PTCLDY    19  16  86 SE7       30.46F WCI  10
$$

NEZ011>018-030>034-042>045-301100-
NORTHEAST NEBRASKA

CITY           SKY/WX    TMP DP  RH WIND       PRES   REMARKS
NORFOLK        PTCLDY    19  16  88 S3        30.49F
COLUMBUS *     PTCLDY    12   3  67 CALM      30.52F
TEKAMAH        PTCLDY    16  13  88 W5        30.55  WCI   9
$$

NEZ050>053-065>068-078-088>093-301100-
SOUTHEAST NEBRASKA

CITY           SKY/WX    TMP DP  RH WIND       PRES   REMARKS
LINCOLN        PTCLDY    17  15  92 CALM      30.54F
OMAHA EPPLEY   CLEAR     22  19  89 NW3       30.55S
FALLS CITY     PTCLDY    17  15  92 NW5       30.55S WCI  10
$$

NEZ044-045-051>053-067-301100-
OMAHA AREA

CITY           SKY/WX    TMP DP  RH WIND       PRES   REMARKS
OMAHA EPPLEY   CLEAR     22  19  89 NW3       30.55S
OFFUTT AFB     CLEAR     16  14  89 CALM      30.54F
$$



USA.gov is the U.S. government's official web portal to all federal, state and local government web resources and services.